[[{"header":{"parameterUnit":"m.s-1","parameterCategory":1,"la1":30.2991,"la2":30.254,"lo1":-89.0895,"lo2":-89.0444,"dy":0.0017,"dx":0.0017,"nx":28,"ny":28,"refTime":"2024-10-14T09:00:00:Z","depth":0,"parameterNumber":2,"parameterNumberName":"U-component_of_WINDS"},"data":[0,0,0,0,0,0,0,0,0,0,0,0,0,0,0,0,0,0,0,0,0,0,0,0,0,0,0,0,0,0,0,0,0,0,0,0,0,0,0,0,0,0,0,0,0,0,0,0,0,0,0,0,0,0,0,0,0,0,3.0038,3.0039,0,3.0151,3.0152,3.0153,3.0105,3.0102,3.0099,3.0097,3.0211,3.0217,3.0222,0,0,0,0,0,0,0,0,0,0,0,0,0,2.9784,2.9789,3.0038,3.0039,3.0041,3.015,3.0152,3.0153,3.0105,3.0102,3.0099,3.0096,3.0209,3.0216,3.0223,0,0,0,0,0,0,0,0,0,0,0,0,0,2.9895,2.979,3.0038,3.003,3.003,3.015,3.0152,3.0154,3.0106,3.0102,3.0098,3.0094,3.0207,3.0215,3.0224,3.0357,0,0,3.0249,3.0253,0,0,0,0,0,0,0,0,2.9889,2.9904,3.003,3.0031,3.0032,3.011,3.0104,3.0222,3.0107,3.0077,3.0097,3.0092,3.0181,3.0191,3.0221,3.0362,3.0367,3.025,3.0255,3.0259,3.0261,0,0,0,0,0,0,0,2.9881,2.9899,3.0082,3.0032,3.0033,3.0022,3.0033,3.0126,3.015,3.008,3.0076,3.009,3.018,3.0213,3.0223,3.0369,3.025,3.0257,3.0262,3.0265,3.063,3.0634,0,0,0,0,0,0,2.9873,2.9893,3.0079,3.0086,2.9949,3.003,3.0042,3.0089,3.0149,3.0155,3.0094,3.0088,3.0201,3.0214,3.0227,3.0389,3.0258,3.0266,3.0271,3.0625,3.0631,3.0636,0,0,0,0,0,0,2.9868,2.989,3.0074,2.9989,3.0011,3.0038,3.0091,3.0093,3.0125,3.016,3.0164,3.0123,3.0198,3.0215,3.0326,3.0392,3.027,3.0278,3.0619,3.0627,3.0633,3.0713,0,0,0,0,0,0,2.9861,2.9889,2.9938,2.999,3.0016,3.0171,3.0095,3.0098,3.014,3.0133,3.0188,3.0193,3.0196,3.0314,3.0334,3.0401,3.0284,3.0614,3.0623,3.0631,3.0704,3.0721,3.0736,0,0,0,0,0,2.9852,2.9955,2.9941,2.9964,3.0079,3.0174,3.0189,3.019,3.0146,3.0197,3.022,3.0192,3.0382,3.0325,3.0348,3.0419,3.0609,3.062,3.063,3.0697,3.0718,3.0736,0,0,0,0,0,0,2.9909,2.9962,2.9947,3.007,3.0118,3.0166,3.023,3.0212,3.0274,3.0265,3.0264,3.0277,3.0392,3.0417,3.0352,3.0553,3.0489,3.0505,3.0532,3.0552,3.0568,3.0559,3.0291,0,0,0,0,0,2.9936,3.0009,3.0051,3.0156,3.0181,3.0202,3.0243,3.0241,3.0291,3.0311,3.0341,3.0391,3.0463,3.0509,3.0577,3.0709,3.0721,3.0769,3.0785,3.0798,3.0811,3.0885,3.0908,3.067,3.067,3.067,0,0,2.9992,3.003,3.0075,3.0168,3.0205,3.0282,3.0219,3.0301,3.0358,3.0323,3.0429,3.0455,3.0511,3.0633,3.0689,3.0657,3.088,3.0812,3.0822,3.0827,3.0898,3.0921,3.0941,3.0677,3.0676,3.0675,0,0,3.0132,3.0169,3.0261,3.0301,3.0359,3.0373,3.0396,3.0448,3.0463,3.0571,3.0547,3.0616,3.0738,3.0779,3.0816,3.098,3.0957,3.1003,3.1085,3.1158,3.1177,3.1193,3.1252,3.1273,3.1016,3.1016,3.1016,0,3.0194,3.0308,3.031,3.0396,3.0439,3.0413,3.0508,3.0546,3.0623,3.0653,3.0618,3.0774,3.0809,3.0943,3.0983,3.1014,3.1041,3.0994,3.1174,3.119,3.1206,3.1262,3.1284,3.1021,3.102,3.102,3.1019,0,3.0382,3.0461,3.0529,3.0606,3.0657,3.0747,3.0764,3.0815,3.0811,3.0829,3.0941,3.0984,3.1061,3.1093,3.1088,3.1227,3.1206,3.1173,3.1108,3.1234,3.1286,3.1308,3.1028,3.1026,3.1025,3.1024,0,0,3.0555,3.0637,3.0662,3.0698,3.0764,3.0825,3.0916,3.0993,3.1037,3.1093,3.117,3.1277,3.1248,3.129,3.129,3.1355,3.1483,3.1313,3.1315,3.1343,3.1641,3.1665,3.169,3.147,3.1474,3.1477,3.1637,0,3.0701,3.0859,3.0867,3.1011,3.1086,3.1066,3.1145,3.1195,3.1216,3.1284,3.1307,3.1384,3.1339,3.1365,3.1428,3.1454,3.1543,3.1443,3.1541,3.1544,3.1525,3.1717,3.1741,3.1889,3.1657,3.1661,3.1663,0,3.089,3.0954,3.1106,3.1165,3.1197,3.1267,3.1341,3.1406,3.1463,3.1474,3.1525,3.1517,3.1612,3.1547,3.1677,3.161,3.1651,3.1671,3.1677,3.1684,3.1609,3.1729,3.1936,3.1958,3.1696,3.1693,3.1691,0,3.1002,3.1127,3.1235,3.1266,3.1337,3.1388,3.142,3.1473,3.152,3.1585,3.1616,3.1691,3.1731,3.179,3.1804,3.1755,3.1936,3.1871,3.1948,3.1948,3.1984,3.1981,3.22,3.2014,3.2014,3.2013,3.2013,0,3.1163,3.1256,3.1286,3.1352,3.1458,3.1468,3.1573,3.1601,3.165,3.1723,3.1711,3.1779,3.1794,3.1866,3.1878,3.1986,3.2004,3.2016,3.2018,3.2016,3.2015,3.2041,3.2031,3.2019,3.2018,3.2017,3.2016,0,3.1303,3.1327,3.1444,3.1503,3.1521,3.1596,3.1647,3.1712,3.1734,3.1826,3.1848,3.1883,3.1968,3.1989,3.2089,3.2097,3.2224,3.2217,3.2205,3.2204,3.228,3.2272,3.2521,3.2555,3.2348,3.235,3.2352,0,3.1403,3.1475,3.1544,3.1592,3.1627,3.1705,3.1754,3.1769,3.182,3.1894,3.195,3.2034,3.2101,3.2238,3.2272,3.235,3.2344,3.2426,3.2355,3.2352,3.2344,3.2339,3.2347,3.2438,3.2441,3.2442,3.2444,0,3.1578,3.1587,3.1659,3.1736,3.1796,3.1857,3.1915,3.1956,3.1979,3.2038,3.2126,3.2178,3.2283,3.2367,3.2446,3.248,3.2467,3.2467,3.2489,3.2487,3.2477,3.2483,3.224,3.246,3.2459,3.2457,3.2456,3.2456,3.1701,3.1765,3.1825,3.1906,3.1952,3.2009,3.2073,3.2105,3.2178,3.2265,3.227,3.2365,3.2425,3.2531,3.257,3.2645,3.262,3.2652,3.2659,3.2667,3.2673,3.2467,3.266,3.266,3.2659,3.2659,3.2659,0,3.1874,3.1913,3.1988,3.2072,3.2137,3.2121,3.2187,3.2242,3.2326,3.2383,3.2451,3.2554,3.2636,3.268,3.2762,3.2814,3.2811,3.2835,3.2831,3.2839,3.2691,3.2664,3.2837,3.2837,3.2837,3.2837,3.2837,3.2837,3.1972,3.2081,3.2099,3.2232,3.227,3.2364,3.2403,3.2456,3.2502,3.2617,3.2686,3.2715,3.2767,3.2854,3.293,3.2941,3.2972,3.3,3.3007,3.2867,3.2849,3.2831,3.2806,3.3007,3.3007,3.3149,3.315,3.3151]},{"header":{"parameterUnit":"m.s-1","parameterCategory":1,"la1":30.2991,"la2":30.254,"lo1":-89.0895,"lo2":-89.0444,"dy":0.0017,"dx":0.0017,"nx":28,"ny":28,"refTime":"2024-10-14T09:00:00:Z","depth":0,"parameterNumber":3,"parameterNumberName":"V-component_of_WINDS"},"data":[0,0,0,0,0,0,0,0,0,0,0,0,0,0,0,0,0,0,0,0,0,0,0,0,0,0,0,0,0,0,0,0,0,0,0,0,0,0,0,0,0,0,0,0,0,0,0,0,0,0,0,0,0,0,0,0,0,0,1.0322,1.0324,0,1.0525,1.0527,1.0529,1.0537,1.0535,1.0532,1.053,1.0745,1.0752,1.076,0,0,0,0,0,0,0,0,0,0,0,0,0,0.9947,0.9954,1.0322,1.0324,1.0327,1.0524,1.0527,1.053,1.0538,1.0535,1.0532,1.0529,1.0742,1.0751,1.0761,0,0,0,0,0,0,0,0,0,0,0,0,0,1.0126,0.9956,1.0321,1.0354,1.0359,1.0524,1.0527,1.0531,1.0538,1.0535,1.0531,1.0528,1.0739,1.0751,1.0762,1.091,0,0,1.0799,1.0804,0,0,0,0,0,0,0,0,1.0116,1.014,1.0347,1.0352,1.0358,1.0502,1.0474,1.0658,1.0539,1.0471,1.053,1.0526,1.0667,1.0685,1.0731,1.092,1.0929,1.08,1.0807,1.0813,1.0816,0,0,0,0,0,0,0,1.0103,1.0131,1.0402,1.035,1.0357,1.0361,1.0382,1.0509,1.0587,1.0476,1.0477,1.0501,1.067,1.072,1.0736,1.0932,1.08,1.081,1.0818,1.0823,1.1253,1.1257,0,0,0,0,0,0,1.0084,1.0121,1.0396,1.0408,1.0225,1.0371,1.0395,1.046,1.0586,1.0601,1.0504,1.05,1.0701,1.0722,1.0744,1.0925,1.0812,1.0824,1.0831,1.1248,1.1253,1.1258,0,0,0,0,0,0,1.0075,1.0108,1.0388,1.0265,1.0301,1.0381,1.0454,1.0465,1.0515,1.0607,1.0621,1.054,1.0699,1.0727,1.0868,1.0933,1.0829,1.084,1.1243,1.125,1.1256,1.1289,0,0,0,0,0,0,1.0065,1.0105,1.0161,1.0266,1.0307,1.0507,1.0458,1.0472,1.0535,1.0533,1.0644,1.066,1.0698,1.085,1.088,1.0947,1.0849,1.1238,1.1246,1.1254,1.1282,1.1295,1.1306,0,0,0,0,0,1.0051,1.0163,1.0163,1.0197,1.0378,1.051,1.0534,1.0575,1.054,1.0598,1.0656,1.0656,1.092,1.0865,1.0898,1.097,1.1234,1.1244,1.1253,1.1277,1.1293,1.1306,0,0,0,0,0,0,1.0066,1.0178,1.0179,1.0328,1.0409,1.0511,1.0585,1.059,1.0685,1.0679,1.0727,1.0752,1.0892,1.0946,1.0881,1.112,1.1074,1.109,1.108,1.1096,1.1108,1.1093,1.0859,0,0,0,0,0,1.0086,1.0182,1.0275,1.0398,1.0438,1.0505,1.0564,1.0588,1.0675,1.071,1.0779,1.0865,1.0968,1.1035,1.1134,1.1289,1.1314,1.1356,1.1368,1.1377,1.1392,1.1478,1.1497,1.1289,1.1289,1.1289,0,0,1.013,1.0202,1.0261,1.0403,1.0469,1.0569,1.0534,1.0642,1.0717,1.0727,1.0864,1.0918,1.1017,1.1166,1.1235,1.1215,1.1454,1.1389,1.1396,1.1406,1.149,1.1509,1.1527,1.1296,1.1295,1.1294,0,0,1.026,1.0324,1.0433,1.0499,1.0599,1.0642,1.0668,1.0769,1.0804,1.0942,1.0951,1.1043,1.1218,1.1289,1.1348,1.1504,1.1508,1.1535,1.1599,1.1683,1.1699,1.1714,1.177,1.179,1.1549,1.1549,1.1549,0,1.0302,1.0452,1.0489,1.0597,1.066,1.0671,1.0782,1.0846,1.0973,1.1017,1.0992,1.1212,1.128,1.1445,1.1483,1.153,1.1562,1.1523,1.1693,1.1709,1.1723,1.1777,1.1798,1.1552,1.1551,1.1551,1.1551,0,1.0499,1.0603,1.0679,1.0799,1.0871,1.098,1.1036,1.1104,1.1121,1.1167,1.1308,1.1389,1.1505,1.1546,1.1565,1.1715,1.1699,1.1683,1.1638,1.1745,1.1797,1.1818,1.1556,1.1555,1.1554,1.1553,0,0,1.0646,1.0784,1.0812,1.0866,1.0976,1.1058,1.1168,1.1279,1.1337,1.1425,1.1519,1.1667,1.1652,1.1719,1.1746,1.1819,1.1938,1.1795,1.1798,1.1819,1.2108,1.212,1.2144,1.194,1.1944,1.1948,1.21,0,1.0789,1.0983,1.1019,1.1189,1.1286,1.1297,1.1393,1.1472,1.1518,1.1608,1.166,1.1764,1.1736,1.1777,1.1849,1.1908,1.1997,1.1897,1.2031,1.2035,1.2006,1.2171,1.2184,1.2324,1.2121,1.2124,1.2127,0,1.0982,1.1072,1.125,1.1346,1.1388,1.1474,1.1578,1.1664,1.1754,1.1782,1.1856,1.1874,1.1991,1.1939,1.2101,1.2032,1.2089,1.2126,1.2132,1.2147,1.2088,1.2191,1.2369,1.2391,1.2159,1.2156,1.2154,0,1.1072,1.1238,1.1365,1.1412,1.1527,1.1587,1.1638,1.1724,1.1789,1.1881,1.1923,1.2028,1.2086,1.2168,1.2215,1.2173,1.2374,1.2326,1.2402,1.2401,1.2445,1.2442,1.2636,1.248,1.2479,1.2479,1.2479,0,1.1229,1.1338,1.1407,1.1486,1.1609,1.165,1.1771,1.1822,1.1898,1.1989,1.2005,1.209,1.2146,1.224,1.2277,1.2406,1.2432,1.2459,1.2468,1.2459,1.2455,1.2497,1.2489,1.2485,1.2483,1.2482,1.2481,0,1.135,1.1401,1.1542,1.1638,1.1665,1.1751,1.1835,1.1913,1.1958,1.2072,1.2102,1.2174,1.2284,1.2339,1.2477,1.2502,1.2648,1.265,1.2617,1.262,1.2694,1.2686,1.2923,1.2956,1.2777,1.2778,1.278,0,1.1447,1.1531,1.1636,1.1696,1.1748,1.1846,1.1911,1.1955,1.2023,1.2131,1.2196,1.2306,1.2397,1.2574,1.264,1.2745,1.2751,1.2826,1.2767,1.2754,1.2753,1.2748,1.2757,1.2837,1.2839,1.284,1.2842,0,1.1614,1.1635,1.1727,1.1828,1.1904,1.1986,1.2067,1.2116,1.2174,1.2249,1.2361,1.2431,1.2571,1.2681,1.2791,1.2846,1.2855,1.2859,1.2883,1.2874,1.2852,1.2866,1.2647,1.2854,1.2853,1.2852,1.2851,1.2851,1.1727,1.1802,1.1887,1.1989,1.2054,1.2129,1.2207,1.2261,1.2354,1.247,1.2491,1.261,1.2698,1.2846,1.2904,1.2999,1.2983,1.3016,1.3025,1.3033,1.3037,1.2835,1.3019,1.3019,1.3019,1.3018,1.3018,0,1.1896,1.195,1.2044,1.2155,1.2236,1.2233,1.2323,1.2391,1.2495,1.2575,1.2663,1.2792,1.2899,1.2972,1.308,1.3142,1.3149,1.317,1.3166,1.3179,1.3045,1.3014,1.3162,1.3162,1.3162,1.3162,1.3162,1.3162,1.1993,1.2119,1.215,1.2309,1.2364,1.2479,1.253,1.26,1.2664,1.2806,1.2894,1.294,1.3018,1.3132,1.323,1.3249,1.3289,1.331,1.3329,1.3203,1.3188,1.3174,1.3145,1.3318,1.3318,1.3455,1.3456,1.3457]}]]